KZ-1A R/B (45604 NORAD) Tracking and Keplerian Element Data

This shows tracking and keplerian element data for the satellite.

Feedback or suggestion? Click here.




ElementValue
Catalog45604
NameKZ-1A R/B
Epoch Orbit243
Epoch Day149.20922387
Epoch Year2020
RAAN180.1561
Inclination97.5469
Eccentricity0.0473638
Argument of Perigee309.248
Mean Anonmoly46.7594
Mean Motion15.26730866
Decay Rate0.00603346
L11 45604U 20028C 20149.20922387 .00603346 22827-5 33369-3 0 9995
L22 45604 97.5469 180.1561 0473638 309.2480 46.7594 15.26730866 2438

Live tracking and technical data element details for KZ-1A R/B (NORAD 45604). KZ-1A R/B can be tracked NOW for your location showing map with azimuth and elevation plus other details from your city location.

Track the satellite on the map from your city or location and see movement details for azimuth, elevation, latitude, longitude, range, height, and movement on the map or in text.







IsCatalogInMostPopularTable: catalog: 45604, numindb: 4
Update: records affected: 1



GetName: 45604 KZ-1A R/B

Hit Count: updated at: Sat, 30 May 2020 14:11:39 GMT